Year,Month,Day,Hour,Minute,Value (Times are PST for insolation in W/m^2)
2012,07,01,00,00,0.00
2012,07,01,00,01,0.00
2012,07,01,00,02,0.00
2012,07,01,00,03,0.00
2012,07,01,00,04,0.00
2012,07,01,00,05,0.00
2012,07,01,00,06,0.00
2012,07,01,00,07,0.00
2012,07,01,00,08,0.00
2012,07,01,00,09,0.00
2012,07,01,00,10,0.00
2012,07,01,00,11,0.00
2012,07,01,00,12,0.00
2012,07,01,00,13,0.00
2012,07,01,00,14,0.00
2012,07,01,00,15,0.00
2012,07,01,00,16,0.00
2012,07,01,00,17,0.00
2012,07,01,00,18,0.00
2012,07,01,00,19,0.00
2012,07,01,00,20,0.00
2012,07,01,00,21,0.00
2012,07,01,00,22,0.00
2012,07,01,00,23,0.00
2012,07,01,00,24,0.00
2012,07,01,00,25,0.00
2012,07,01,00,26,0.00
2012,07,01,00,27,0.00
2012,07,01,00,28,0.00
2012,07,01,00,29,0.00
2012,07,01,00,30,0.00
2012,07,01,00,31,0.00
2012,07,01,00,32,0.00
2012,07,01,00,33,0.00
2012,07,01,00,34,0.00
2012,07,01,00,35,0.00
2012,07,01,00,36,0.00
2012,07,01,00,37,0.00
2012,07,01,00,38,0.00
2012,07,01,00,39,0.00
2012,07,01,00,40,0.00
2012,07,01,00,41,0.00
2012,07,01,00,42,0.00
2012,07,01,00,43,0.00
2012,07,01,00,44,0.00
2012,07,01,00,45,0.00
2012,07,01,00,46,0.00
2012,07,01,00,47,0.00
2012,07,01,00,48,0.00
2012,07,01,00,49,0.00
2012,07,01,00,50,0.00
2012,07,01,00,51,0.00
2012,07,01,00,52,0.00
2012,07,01,00,53,0.00
2012,07,01,00,54,0.00
2012,07,01,00,55,0.00
2012,07,01,00,56,0.00
2012,07,01,00,57,0.00
2012,07,01,00,58,0.00
2012,07,01,00,59,0.00
2012,07,01,01,00,0.00
2012,07,01,01,01,0.00
2012,07,01,01,02,0.00
2012,07,01,01,03,0.00
2012,07,01,01,04,0.00
2012,07,01,01,05,0.00
2012,07,01,01,06,0.00
2012,07,01,01,07,0.00
2012,07,01,01,08,0.00
2012,07,01,01,09,0.00
2012,07,01,01,10,0.00
2012,07,01,01,11,0.00
2012,07,01,01,12,0.00
2012,07,01,01,13,0.00
2012,07,01,01,14,0.00
2012,07,01,01,15,0.00
2012,07,01,01,16,0.00
2012,07,01,01,17,0.00
2012,07,01,01,18,0.00
2012,07,01,01,19,0.00
2012,07,01,01,20,0.00
2012,07,01,01,21,0.00
2012,07,01,01,22,0.00
2012,07,01,01,23,0.00
2012,07,01,01,24,0.00
2012,07,01,01,25,0.00
2012,07,01,01,26,0.00
2012,07,01,01,27,0.00
2012,07,01,01,28,0.00
2012,07,01,01,29,0.00
2012,07,01,01,30,0.00
2012,07,01,01,31,0.00
2012,07,01,01,32,0.00
2012,07,01,01,33,0.00
2012,07,01,01,34,0.00
2012,07,01,01,35,0.00
2012,07,01,01,36,0.00
2012,07,01,01,37,0.00
2012,07,01,01,38,0.00
2012,07,01,01,39,0.00
2012,07,01,01,40,0.00
2012,07,01,01,41,0.00
2012,07,01,01,42,0.00
2012,07,01,01,43,0.00
2012,07,01,01,44,0.00
2012,07,01,01,45,0.00
2012,07,01,01,46,0.00
2012,07,01,01,47,0.00
2012,07,01,01,48,0.00
2012,07,01,01,49,0.00
2012,07,01,01,50,0.00
2012,07,01,01,51,0.00
2012,07,01,01,52,0.00
2012,07,01,01,53,0.00
2012,07,01,01,54,0.00
2012,07,01,01,55,0.00
2012,07,01,01,56,0.00
2012,07,01,01,57,0.00
2012,07,01,01,58,0.00
2012,07,01,01,59,0.00
2012,07,01,02,00,0.00
2012,07,01,02,01,0.00
2012,07,01,02,02,0.00
2012,07,01,02,03,0.00
2012,07,01,02,04,0.00
2012,07,01,02,05,0.00
2012,07,01,02,06,0.00
2012,07,01,02,07,0.00
2012,07,01,02,08,0.00
2012,07,01,02,09,0.00
2012,07,01,02,10,0.00
2012,07,01,02,11,0.00
2012,07,01,02,12,0.00
2012,07,01,02,13,0.00
2012,07,01,02,14,0.00
2012,07,01,02,15,0.00
2012,07,01,02,16,0.00
2012,07,01,02,17,0.00
2012,07,01,02,18,0.00
2012,07,01,02,19,0.00
2012,07,01,02,20,0.00
2012,07,01,02,21,0.00
2012,07,01,02,22,0.00
2012,07,01,02,23,0.00
2012,07,01,02,24,0.00
2012,07,01,02,25,0.00
2012,07,01,02,26,0.00
2012,07,01,02,27,0.00
2012,07,01,02,28,0.00
2012,07,01,02,29,0.00
2012,07,01,02,30,0.00
2012,07,01,02,31,0.00
2012,07,01,02,32,0.00
2012,07,01,02,33,0.00
2012,07,01,02,34,0.00
2012,07,01,02,35,0.00
2012,07,01,02,36,0.00
2012,07,01,02,37,0.00
2012,07,01,02,38,0.00
2012,07,01,02,39,0.00
2012,07,01,02,40,0.00
2012,07,01,02,41,0.00
2012,07,01,02,42,0.00
2012,07,01,02,43,0.00
2012,07,01,02,44,0.00
2012,07,01,02,45,0.00
2012,07,01,02,46,0.00
2012,07,01,02,47,0.00
2012,07,01,02,48,0.00
2012,07,01,02,49,0.00
2012,07,01,02,50,0.00
2012,07,01,02,51,0.00
2012,07,01,02,52,0.00
2012,07,01,02,53,0.00
2012,07,01,02,54,0.00
2012,07,01,02,55,0.00
2012,07,01,02,56,0.00
2012,07,01,02,57,0.00
2012,07,01,02,58,0.00
2012,07,01,02,59,0.00
2012,07,01,03,00,0.00
2012,07,01,03,01,0.00
2012,07,01,03,02,0.00
2012,07,01,03,03,0.00
2012,07,01,03,04,0.00
2012,07,01,03,05,0.00
2012,07,01,03,06,0.00
2012,07,01,03,07,0.00
2012,07,01,03,08,0.00
2012,07,01,03,09,0.00
2012,07,01,03,10,0.00
2012,07,01,03,11,0.00
2012,07,01,03,12,0.00
2012,07,01,03,13,0.00
2012,07,01,03,14,0.00
2012,07,01,03,15,0.00
2012,07,01,03,16,0.00
2012,07,01,03,17,0.00
2012,07,01,03,18,0.00
2012,07,01,03,19,0.00
2012,07,01,03,20,0.00
2012,07,01,03,21,0.00
2012,07,01,03,22,0.00
2012,07,01,03,23,0.00
2012,07,01,03,24,0.00
2012,07,01,03,25,0.00
2012,07,01,03,26,0.00
2012,07,01,03,27,0.00
2012,07,01,03,28,0.00
2012,07,01,03,29,0.00
2012,07,01,03,30,0.00
2012,07,01,03,31,0.00
2012,07,01,03,32,0.00
2012,07,01,03,33,0.00
2012,07,01,03,34,0.00
2012,07,01,03,35,0.00
2012,07,01,03,36,0.00
2012,07,01,03,37,0.00
2012,07,01,03,38,0.00
2012,07,01,03,39,0.00
2012,07,01,03,40,0.00
2012,07,01,03,41,0.00
2012,07,01,03,42,0.00
2012,07,01,03,43,0.00
2012,07,01,03,44,0.00
2012,07,01,03,45,0.00
2012,07,01,03,46,0.00
2012,07,01,03,47,0.00
2012,07,01,03,48,0.00
2012,07,01,03,49,0.00
2012,07,01,03,50,0.00
2012,07,01,03,51,0.00
2012,07,01,03,52,0.00
2012,07,01,03,53,0.00
2012,07,01,03,54,0.00
2012,07,01,03,55,0.00
2012,07,01,03,56,0.00
2012,07,01,03,57,0.00
2012,07,01,03,58,0.00
2012,07,01,03,59,0.00
2012,07,01,04,00,0.00
2012,07,01,04,01,0.00
2012,07,01,04,02,0.00
2012,07,01,04,03,0.00
2012,07,01,04,04,0.00
2012,07,01,04,05,0.00
2012,07,01,04,06,0.00
2012,07,01,04,07,0.00
2012,07,01,04,08,0.00
2012,07,01,04,09,0.00
2012,07,01,04,10,0.00
2012,07,01,04,11,0.00
2012,07,01,04,12,0.00
2012,07,01,04,13,0.00
2012,07,01,04,14,0.00
2012,07,01,04,15,0.00
2012,07,01,04,16,0.00
2012,07,01,04,17,0.00
2012,07,01,04,18,0.00
2012,07,01,04,19,0.00
2012,07,01,04,20,0.00
2012,07,01,04,21,0.00
2012,07,01,04,22,0.00
2012,07,01,04,23,0.00
2012,07,01,04,24,0.00
2012,07,01,04,25,0.00
2012,07,01,04,26,0.00
2012,07,01,04,27,0.00
2012,07,01,04,28,0.00
2012,07,01,04,29,0.00
2012,07,01,04,30,0.00
2012,07,01,04,31,0.00
2012,07,01,04,32,0.00
2012,07,01,04,33,0.00
2012,07,01,04,34,0.00
2012,07,01,04,35,0.00
2012,07,01,04,36,0.00
2012,07,01,04,37,0.00
2012,07,01,04,38,0.00
2012,07,01,04,39,0.00
2012,07,01,04,40,0.00
2012,07,01,04,41,0.00
2012,07,01,04,42,0.00
2012,07,01,04,43,0.00
2012,07,01,04,44,0.00
2012,07,01,04,45,0.00
2012,07,01,04,46,0.00
2012,07,01,04,47,0.00
2012,07,01,04,48,0.00
2012,07,01,04,49,0.00
2012,07,01,04,50,0.00
2012,07,01,04,51,0.00
2012,07,01,04,52,0.00
2012,07,01,04,53,0.00
2012,07,01,04,54,0.00
2012,07,01,04,55,0.00
2012,07,01,04,56,0.00
2012,07,01,04,57,0.00
2012,07,01,04,58,0.00
2012,07,01,04,59,0.00
2012,07,01,05,00,0.00
2012,07,01,05,01,0.00
2012,07,01,05,02,0.00
2012,07,01,05,03,0.00
2012,07,01,05,04,0.00
2012,07,01,05,05,0.00
2012,07,01,05,06,0.00
2012,07,01,05,07,0.00
2012,07,01,05,08,0.00
2012,07,01,05,09,0.00
2012,07,01,05,10,0.00
2012,07,01,05,11,0.00
2012,07,01,05,12,0.00
2012,07,01,05,13,0.00
2012,07,01,05,14,0.00
2012,07,01,05,15,0.00
2012,07,01,05,16,0.00
2012,07,01,05,17,0.00
2012,07,01,05,18,0.00
2012,07,01,05,19,0.00
2012,07,01,05,20,0.20
2012,07,01,05,21,5.00
2012,07,01,05,22,5.00
2012,07,01,05,23,5.00
2012,07,01,05,24,5.00
2012,07,01,05,25,5.00
2012,07,01,05,26,5.00
2012,07,01,05,27,5.00
2012,07,01,05,28,5.60
2012,07,01,05,29,7.00
2012,07,01,05,30,7.00
2012,07,01,05,31,7.00
2012,07,01,05,32,7.10
2012,07,01,05,33,9.00
2012,07,01,05,34,9.70
2012,07,01,05,35,11.00
2012,07,01,05,36,11.00
2012,07,01,05,37,11.80
2012,07,01,05,38,14.00
2012,07,01,05,39,16.00
2012,07,01,05,40,16.70
2012,07,01,05,41,18.50
2012,07,01,05,42,20.30
2012,07,01,05,43,21.00
2012,07,01,05,44,23.10
2012,07,01,05,45,25.20
2012,07,01,05,46,26.70
2012,07,01,05,47,28.00
2012,07,01,05,48,29.30
2012,07,01,05,49,31.60
2012,07,01,05,50,32.00
2012,07,01,05,51,32.00
2012,07,01,05,52,32.40
2012,07,01,05,53,34.20
2012,07,01,05,54,35.00
2012,07,01,05,55,35.00
2012,07,01,05,56,39.00
2012,07,01,05,57,40.00
2012,07,01,05,58,39.60
2012,07,01,05,59,39.00
2012,07,01,06,00,39.00
2012,07,01,06,01,39.00
2012,07,01,06,02,38.60
2012,07,01,06,03,37.00
2012,07,01,06,04,36.10
2012,07,01,06,05,35.00
2012,07,01,06,06,35.00
2012,07,01,06,07,36.70
2012,07,01,06,08,37.40
2012,07,01,06,09,39.00
2012,07,01,06,10,40.30
2012,07,01,06,11,43.30
2012,07,01,06,12,44.00
2012,07,01,06,13,44.10
2012,07,01,06,14,46.00
2012,07,01,06,15,46.00
2012,07,01,06,16,46.00
2012,07,01,06,17,46.70
2012,07,01,06,18,47.00
2012,07,01,06,19,49.00
2012,07,01,06,20,51.40
2012,07,01,06,21,53.30
2012,07,01,06,22,55.00
2012,07,01,06,23,58.60
2012,07,01,06,24,61.70
2012,07,01,06,25,62.00
2012,07,01,06,26,62.00
2012,07,01,06,27,61.30
2012,07,01,06,28,60.00
2012,07,01,06,29,58.70
2012,07,01,06,30,58.00
2012,07,01,06,31,57.80
2012,07,01,06,32,56.00
2012,07,01,06,33,56.80
2012,07,01,06,34,59.20
2012,07,01,06,35,60.00
2012,07,01,06,36,61.70
2012,07,01,06,37,62.00
2012,07,01,06,38,62.00
2012,07,01,06,39,61.20
2012,07,01,06,40,60.00
2012,07,01,06,41,60.00
2012,07,01,06,42,60.00
2012,07,01,06,43,62.20
2012,07,01,06,44,63.00
2012,07,01,06,45,63.90
2012,07,01,06,46,65.00
2012,07,01,06,47,65.00
2012,07,01,06,48,66.70
2012,07,01,06,49,67.40
2012,07,01,06,50,70.60
2012,07,01,06,51,73.80
2012,07,01,06,52,76.60
2012,07,01,06,53,78.50
2012,07,01,06,54,82.70
2012,07,01,06,55,84.50
2012,07,01,06,56,86.70
2012,07,01,06,57,88.00
2012,07,01,06,58,89.30
2012,07,01,06,59,90.80
2012,07,01,07,00,91.00
2012,07,01,07,01,91.00
2012,07,01,07,02,91.00
2012,07,01,07,03,91.00
2012,07,01,07,04,90.30
2012,07,01,07,05,88.40
2012,07,01,07,06,86.10
2012,07,01,07,07,86.00
2012,07,01,07,08,87.60
2012,07,01,07,09,90.50
2012,07,01,07,10,92.30
2012,07,01,07,11,94.70
2012,07,01,07,12,95.20
2012,07,01,07,13,97.80
2012,07,01,07,14,101.60
2012,07,01,07,15,108.10
2012,07,01,07,16,117.30
2012,07,01,07,17,125.90
2012,07,01,07,18,134.00
2012,07,01,07,19,137.60
2012,07,01,07,20,141.20
2012,07,01,07,21,126.80
2012,07,01,07,22,121.00
2012,07,01,07,23,113.80
2012,07,01,07,24,109.00
2012,07,01,07,25,110.20
2012,07,01,07,26,114.30
2012,07,01,07,27,117.20
2012,07,01,07,28,118.00
2012,07,01,07,29,121.10
2012,07,01,07,30,130.20
2012,07,01,07,31,139.90
2012,07,01,07,32,142.00
2012,07,01,07,33,142.00
2012,07,01,07,34,141.20
2012,07,01,07,35,139.20
2012,07,01,07,36,139.00
2012,07,01,07,37,139.00
2012,07,01,07,38,140.00
2012,07,01,07,39,142.90
2012,07,01,07,40,144.00
2012,07,01,07,41,142.40
2012,07,01,07,42,145.00
2012,07,01,07,43,148.40
2012,07,01,07,44,151.00
2012,07,01,07,45,154.90
2012,07,01,07,46,156.00
2012,07,01,07,47,155.00
2012,07,01,07,48,154.60
2012,07,01,07,49,150.30
2012,07,01,07,50,143.10
2012,07,01,07,51,138.20
2012,07,01,07,52,135.30
2012,07,01,07,53,137.30
2012,07,01,07,54,141.80
2012,07,01,07,55,144.00
2012,07,01,07,56,142.80
2012,07,01,07,57,143.40
2012,07,01,07,58,144.00
2012,07,01,07,59,144.00
2012,07,01,08,00,145.30
2012,07,01,08,01,151.70
2012,07,01,08,02,155.00
2012,07,01,08,03,163.80
2012,07,01,08,04,170.40
2012,07,01,08,05,171.00
2012,07,01,08,06,169.70
2012,07,01,08,07,166.10
2012,07,01,08,08,165.00
2012,07,01,08,09,168.00
2012,07,01,08,10,177.10
2012,07,01,08,11,180.70
2012,07,01,08,12,178.10
2012,07,01,08,13,174.20
2012,07,01,08,14,171.40
2012,07,01,08,15,173.20
2012,07,01,08,16,178.40
2012,07,01,08,17,177.20
2012,07,01,08,18,170.70
2012,07,01,08,19,161.50
2012,07,01,08,20,154.70
2012,07,01,08,21,151.40
2012,07,01,08,22,149.40
2012,07,01,08,23,151.40
2012,07,01,08,24,154.10
2012,07,01,08,25,158.00
2012,07,01,08,26,163.20
2012,07,01,08,27,169.70
2012,07,01,08,28,177.60
2012,07,01,08,29,182.00
2012,07,01,08,30,185.40
2012,07,01,08,31,186.00
2012,07,01,08,32,186.00
2012,07,01,08,33,185.20
2012,07,01,08,34,182.80
2012,07,01,08,35,180.50
2012,07,01,08,36,178.60
2012,07,01,08,37,176.90
2012,07,01,08,38,174.60
2012,07,01,08,39,175.70
2012,07,01,08,40,178.30
2012,07,01,08,41,182.10
2012,07,01,08,42,185.40
2012,07,01,08,43,187.10
2012,07,01,08,44,185.80
2012,07,01,08,45,181.40
2012,07,01,08,46,174.40
2012,07,01,08,47,162.00
2012,07,01,08,48,150.10
2012,07,01,08,49,144.00
2012,07,01,08,50,145.50
2012,07,01,08,51,154.40
2012,07,01,08,52,163.40
2012,07,01,08,53,171.20
2012,07,01,08,54,179.10
2012,07,01,08,55,184.80
2012,07,01,08,56,187.60
2012,07,01,08,57,189.80
2012,07,01,08,58,190.40
2012,07,01,08,59,192.00
2012,07,01,09,00,192.50
2012,07,01,09,01,193.00
2012,07,01,09,02,194.60
2012,07,01,09,03,196.80
2012,07,01,09,04,198.20
2012,07,01,09,05,203.50
2012,07,01,09,06,206.50
2012,07,01,09,07,208.30
2012,07,01,09,08,209.00
2012,07,01,09,09,208.80
2012,07,01,09,10,206.80
2012,07,01,09,11,205.30
2012,07,01,09,12,203.00
2012,07,01,09,13,200.60
2012,07,01,09,14,199.20
2012,07,01,09,15,194.80
2012,07,01,09,16,191.50
2012,07,01,09,17,190.80
2012,07,01,09,18,195.00
2012,07,01,09,19,202.20
2012,07,01,09,20,212.50
2012,07,01,09,21,224.10
2012,07,01,09,22,230.00
2012,07,01,09,23,233.10
2012,07,01,09,24,239.20
2012,07,01,09,25,241.00
2012,07,01,09,26,239.20
2012,07,01,09,27,232.60
2012,07,01,09,28,222.30
2012,07,01,09,29,211.50
2012,07,01,09,30,201.80
2012,07,01,09,31,194.50
2012,07,01,09,32,192.10
2012,07,01,09,33,192.60
2012,07,01,09,34,197.40
2012,07,01,09,35,204.40
2012,07,01,09,36,210.60
2012,07,01,09,37,213.80
2012,07,01,09,38,212.90
2012,07,01,09,39,209.00
2012,07,01,09,40,210.50
2012,07,01,09,41,216.50
2012,07,01,09,42,224.60
2012,07,01,09,43,232.20
2012,07,01,09,44,241.00
2012,07,01,09,45,248.50
2012,07,01,09,46,249.30
2012,07,01,09,47,246.00
2012,07,01,09,48,239.40
2012,07,01,09,49,231.10
2012,07,01,09,50,225.10
2012,07,01,09,51,223.00
2012,07,01,09,52,223.80
2012,07,01,09,53,226.20
2012,07,01,09,54,227.00
2012,07,01,09,55,223.80
2012,07,01,09,56,215.10
2012,07,01,09,57,205.20
2012,07,01,09,58,197.20
2012,07,01,09,59,190.20
2012,07,01,10,00,184.50
2012,07,01,10,01,178.80
2012,07,01,10,02,171.80
2012,07,01,10,03,170.40
2012,07,01,10,04,168.20
2012,07,01,10,05,165.90
2012,07,01,10,06,165.00
2012,07,01,10,07,166.70
2012,07,01,10,08,167.30
2012,07,01,10,09,169.90
2012,07,01,10,10,172.90
2012,07,01,10,11,176.40
2012,07,01,10,12,181.70
2012,07,01,10,13,189.30
2012,07,01,10,14,198.40
2012,07,01,10,15,206.40
2012,07,01,10,16,213.40
2012,07,01,10,17,218.40
2012,07,01,10,18,220.80
2012,07,01,10,19,220.90
2012,07,01,10,20,218.60
2012,07,01,10,21,210.60
2012,07,01,10,22,201.50
2012,07,01,10,23,192.40
2012,07,01,10,24,188.40
2012,07,01,10,25,195.20
2012,07,01,10,26,205.80
2012,07,01,10,27,214.80
2012,07,01,10,28,220.60
2012,07,01,10,29,226.90
2012,07,01,10,30,231.50
2012,07,01,10,31,230.90
2012,07,01,10,32,219.20
2012,07,01,10,33,211.20
2012,07,01,10,34,204.40
2012,07,01,10,35,200.70
2012,07,01,10,36,200.00
2012,07,01,10,37,198.70
2012,07,01,10,38,196.50
2012,07,01,10,39,193.80
2012,07,01,10,40,189.80
2012,07,01,10,41,185.80
2012,07,01,10,42,181.60
2012,07,01,10,43,178.90
2012,07,01,10,44,178.00
2012,07,01,10,45,177.20
2012,07,01,10,46,176.00
2012,07,01,10,47,174.50
2012,07,01,10,48,171.30
2012,07,01,10,49,168.70
2012,07,01,10,50,167.00
2012,07,01,10,51,167.00
2012,07,01,10,52,167.00
2012,07,01,10,53,167.00
2012,07,01,10,54,170.60
2012,07,01,10,55,171.00
2012,07,01,10,56,171.00
2012,07,01,10,57,170.00
2012,07,01,10,58,166.50
2012,07,01,10,59,163.50
2012,07,01,11,00,162.10
2012,07,01,11,01,162.20
2012,07,01,11,02,164.50
2012,07,01,11,03,169.50
2012,07,01,11,04,175.80
2012,07,01,11,05,183.60
2012,07,01,11,06,188.10
2012,07,01,11,07,192.80
2012,07,01,11,08,195.80
2012,07,01,11,09,198.10
2012,07,01,11,10,199.60
2012,07,01,11,11,203.20
2012,07,01,11,12,206.20
2012,07,01,11,13,209.50
2012,07,01,11,14,212.20
2012,07,01,11,15,215.10
2012,07,01,11,16,218.60
2012,07,01,11,17,224.00
2012,07,01,11,18,230.60
2012,07,01,11,19,237.50
2012,07,01,11,20,243.10
2012,07,01,11,21,248.80
2012,07,01,11,22,253.80
2012,07,01,11,23,259.20
2012,07,01,11,24,268.00
2012,07,01,11,25,274.00
2012,07,01,11,26,278.40
2012,07,01,11,27,285.00
2012,07,01,11,28,283.60
2012,07,01,11,29,278.50
2012,07,01,11,30,271.50
2012,07,01,11,31,267.80
2012,07,01,11,32,263.60
2012,07,01,11,33,262.00
2012,07,01,11,34,263.50
2012,07,01,11,35,266.90
2012,07,01,11,36,273.40
2012,07,01,11,37,282.10
2012,07,01,11,38,291.30
2012,07,01,11,39,298.60
2012,07,01,11,40,301.00
2012,07,01,11,41,303.70
2012,07,01,11,42,304.00
2012,07,01,11,43,304.00
2012,07,01,11,44,303.00
2012,07,01,11,45,301.40
2012,07,01,11,46,301.00
2012,07,01,11,47,302.10
2012,07,01,11,48,307.70
2012,07,01,11,49,315.60
2012,07,01,11,50,323.50
2012,07,01,11,51,332.90
2012,07,01,11,52,341.60
2012,07,01,11,53,352.20
2012,07,01,11,54,360.80
2012,07,01,11,55,368.80
2012,07,01,11,56,377.20
2012,07,01,11,57,387.30
2012,07,01,11,58,395.10
2012,07,01,11,59,395.60
2012,07,01,12,00,391.50
2012,07,01,12,01,390.80
2012,07,01,12,02,395.90
2012,07,01,12,03,412.30
2012,07,01,12,04,434.90
2012,07,01,12,05,469.00
2012,07,01,12,06,497.00
2012,07,01,12,07,496.50
2012,07,01,12,08,491.80
2012,07,01,12,09,484.60
2012,07,01,12,10,478.80
2012,07,01,12,11,474.70
2012,07,01,12,12,472.40
2012,07,01,12,13,473.20
2012,07,01,12,14,489.00
2012,07,01,12,15,519.90
2012,07,01,12,16,538.60
2012,07,01,12,17,549.40
2012,07,01,12,18,585.20
2012,07,01,12,19,562.50
2012,07,01,12,20,531.00
2012,07,01,12,21,501.50
2012,07,01,12,22,419.40
2012,07,01,12,23,468.00
2012,07,01,12,24,710.20
2012,07,01,12,25,1157.50
2012,07,01,12,26,1155.00
2012,07,01,12,27,1031.20
2012,07,01,12,28,960.40
2012,07,01,12,29,681.20
2012,07,01,12,30,648.90
2012,07,01,12,31,661.10
2012,07,01,12,32,644.50
2012,07,01,12,33,705.60
2012,07,01,12,34,685.00
2012,07,01,12,35,607.50
2012,07,01,12,36,580.80
2012,07,01,12,37,561.20
2012,07,01,12,38,543.70
2012,07,01,12,39,560.40
2012,07,01,12,40,564.00
2012,07,01,12,41,766.20
2012,07,01,12,42,1373.00
2012,07,01,12,43,1096.80
2012,07,01,12,44,910.00
2012,07,01,12,45,916.00
2012,07,01,12,46,587.30
2012,07,01,12,47,612.90
2012,07,01,12,48,680.00
2012,07,01,12,49,680.00
2012,07,01,12,50,621.20
2012,07,01,12,51,586.50
2012,07,01,12,52,556.00
2012,07,01,12,53,538.20
2012,07,01,12,54,536.70
2012,07,01,12,55,552.00
2012,07,01,12,56,583.80
2012,07,01,12,57,601.00
2012,07,01,12,58,587.80
2012,07,01,12,59,596.50
2012,07,01,13,00,590.10
2012,07,01,13,01,599.20
2012,07,01,13,02,591.00
2012,07,01,13,03,578.90
2012,07,01,13,04,575.50
2012,07,01,13,05,569.10
2012,07,01,13,06,571.00
2012,07,01,13,07,581.10
2012,07,01,13,08,587.00
2012,07,01,13,09,587.00
2012,07,01,13,10,587.00
2012,07,01,13,11,587.00
2012,07,01,13,12,667.00
2012,07,01,13,13,747.00
2012,07,01,13,14,639.00
2012,07,01,13,15,583.50
2012,07,01,13,16,511.30
2012,07,01,13,17,546.40
2012,07,01,13,18,621.00
2012,07,01,13,19,657.00
2012,07,01,13,20,657.00
2012,07,01,13,21,706.30
2012,07,01,13,22,986.00
2012,07,01,13,23,986.00
2012,07,01,13,24,986.00
2012,07,01,13,25,986.00
2012,07,01,13,26,495.70
2012,07,01,13,27,536.00
2012,07,01,13,28,536.00
2012,07,01,13,29,754.90
2012,07,01,13,30,1047.00
2012,07,01,13,31,1041.00
2012,07,01,13,32,854.90
2012,07,01,13,33,907.30
2012,07,01,13,34,955.20
2012,07,01,13,35,947.20
2012,07,01,13,36,964.80
2012,07,01,13,37,974.00
2012,07,01,13,38,333.20
2012,07,01,13,39,368.20
2012,07,01,13,40,793.00
2012,07,01,13,41,546.00
2012,07,01,13,42,317.20
2012,07,01,13,43,375.20
2012,07,01,13,44,401.30
2012,07,01,13,45,353.60
2012,07,01,13,46,376.00
2012,07,01,13,47,376.00
2012,07,01,13,48,376.00
2012,07,01,13,49,978.40
2012,07,01,13,50,1116.70
2012,07,01,13,51,1116.00
2012,07,01,13,52,1116.00
2012,07,01,13,53,1116.00
2012,07,01,13,54,1116.00
2012,07,01,13,55,1116.00
2012,07,01,13,56,436.80
2012,07,01,13,57,401.00
2012,07,01,13,58,401.00
2012,07,01,13,59,389.50
2012,07,01,14,00,378.00
2012,07,01,14,01,358.50
2012,07,01,14,02,354.80
2012,07,01,14,03,357.20
2012,07,01,14,04,379.20
2012,07,01,14,05,423.50
2012,07,01,14,06,446.00
2012,07,01,14,07,446.00
2012,07,01,14,08,446.00
2012,07,01,14,09,571.10
2012,07,01,14,10,842.00
2012,07,01,14,11,842.00
2012,07,01,14,12,842.00
2012,07,01,14,13,980.70
2012,07,01,14,14,1014.50
2012,07,01,14,15,1114.00
2012,07,01,14,16,793.20
2012,07,01,14,17,376.40
2012,07,01,14,18,376.90
2012,07,01,14,19,383.00
2012,07,01,14,20,528.60
2012,07,01,14,21,1122.60
2012,07,01,14,22,1144.00
2012,07,01,14,23,1144.00
2012,07,01,14,24,1123.00
2012,07,01,14,25,1132.90
2012,07,01,14,26,1144.40
2012,07,01,14,27,1157.00
2012,07,01,14,28,1157.00
2012,07,01,14,29,1157.00
2012,07,01,14,30,1157.00
2012,07,01,14,31,1157.00
2012,07,01,14,32,1157.00
2012,07,01,14,33,972.60
2012,07,01,14,34,696.00
2012,07,01,14,35,696.00
2012,07,01,14,36,696.00
2012,07,01,14,37,975.30
2012,07,01,14,38,983.20
2012,07,01,14,39,968.20
2012,07,01,14,40,980.40
2012,07,01,14,41,985.40
2012,07,01,14,42,956.50
2012,07,01,14,43,951.00
2012,07,01,14,44,966.30
2012,07,01,14,45,1002.00
2012,07,01,14,46,1002.00
2012,07,01,14,47,1002.00
2012,07,01,14,48,1002.00
2012,07,01,14,49,936.90
2012,07,01,14,50,568.00
2012,07,01,14,51,568.00
2012,07,01,14,52,568.00
2012,07,01,14,53,535.00
2012,07,01,14,54,510.90
2012,07,01,14,55,278.20
2012,07,01,14,56,303.50
2012,07,01,14,57,334.00
2012,07,01,14,58,334.00
2012,07,01,14,59,334.00
2012,07,01,15,00,495.90
2012,07,01,15,01,483.80
2012,07,01,15,02,365.60
2012,07,01,15,03,362.80
2012,07,01,15,04,326.20
2012,07,01,15,05,304.20
2012,07,01,15,06,297.50
2012,07,01,15,07,304.00
2012,07,01,15,08,329.60
2012,07,01,15,09,355.00
2012,07,01,15,10,393.30
2012,07,01,15,11,411.00
2012,07,01,15,12,446.40
2012,07,01,15,13,1069.80
2012,07,01,15,14,1030.00
2012,07,01,15,15,1030.00
2012,07,01,15,16,1030.00
2012,07,01,15,17,926.00
2012,07,01,15,18,884.30
2012,07,01,15,19,877.80
2012,07,01,15,20,873.20
2012,07,01,15,21,872.00
2012,07,01,15,22,870.60
2012,07,01,15,23,865.80
2012,07,01,15,24,853.70
2012,07,01,15,25,877.00
2012,07,01,15,26,886.20
2012,07,01,15,27,937.60
2012,07,01,15,28,965.00
2012,07,01,15,29,403.90
2012,07,01,15,30,350.00
2012,07,01,15,31,309.80
2012,07,01,15,32,216.00
2012,07,01,15,33,216.00
2012,07,01,15,34,649.30
2012,07,01,15,35,821.40
2012,07,01,15,36,810.60
2012,07,01,15,37,772.00
2012,07,01,15,38,796.30
2012,07,01,15,39,793.40
2012,07,01,15,40,793.40
2012,07,01,15,41,784.40
2012,07,01,15,42,769.20
2012,07,01,15,43,768.50
2012,07,01,15,44,777.50
2012,07,01,15,45,785.90
2012,07,01,15,46,784.80
2012,07,01,15,47,785.80
2012,07,01,15,48,787.10
2012,07,01,15,49,777.00
2012,07,01,15,50,761.50
2012,07,01,15,51,791.20
2012,07,01,15,52,720.00
2012,07,01,15,53,688.30
2012,07,01,15,54,478.00
2012,07,01,15,55,478.00
2012,07,01,15,56,478.00
2012,07,01,15,57,682.60
2012,07,01,15,58,777.00
2012,07,01,15,59,722.70
2012,07,01,16,00,234.00
2012,07,01,16,01,316.80
2012,07,01,16,02,441.00
2012,07,01,16,03,441.00
2012,07,01,16,04,441.00
2012,07,01,16,05,763.80
2012,07,01,16,06,768.00
2012,07,01,16,07,768.00
2012,07,01,16,08,779.40
2012,07,01,16,09,781.40
2012,07,01,16,10,753.50
2012,07,01,16,11,749.00
2012,07,01,16,12,756.30
2012,07,01,16,13,775.20
2012,07,01,16,14,779.00
2012,07,01,16,15,779.00
2012,07,01,16,16,754.30
2012,07,01,16,17,281.00
2012,07,01,16,18,262.80
2012,07,01,16,19,258.00
2012,07,01,16,20,258.00
2012,07,01,16,21,258.00
2012,07,01,16,22,303.60
2012,07,01,16,23,306.00
2012,07,01,16,24,306.00
2012,07,01,16,25,306.00
2012,07,01,16,26,570.60
2012,07,01,16,27,728.20
2012,07,01,16,28,714.60
2012,07,01,16,29,712.00
2012,07,01,16,30,595.10
2012,07,01,16,31,378.00
2012,07,01,16,32,378.00
2012,07,01,16,33,378.00
2012,07,01,16,34,617.30
2012,07,01,16,35,615.50
2012,07,01,16,36,593.40
2012,07,01,16,37,582.20
2012,07,01,16,38,584.80
2012,07,01,16,39,585.40
2012,07,01,16,40,588.10
2012,07,01,16,41,582.00
2012,07,01,16,42,582.00
2012,07,01,16,43,601.20
2012,07,01,16,44,561.70
2012,07,01,16,45,538.00
2012,07,01,16,46,600.00
2012,07,01,16,47,629.50
2012,07,01,16,48,626.00
2012,07,01,16,49,626.00
2012,07,01,16,50,420.20
2012,07,01,16,51,332.00
2012,07,01,16,52,631.00
2012,07,01,16,53,636.70
2012,07,01,16,54,663.00
2012,07,01,16,55,685.00
2012,07,01,16,56,689.00
2012,07,01,16,57,687.50
2012,07,01,16,58,660.40
2012,07,01,16,59,663.50
2012,07,01,17,00,613.50
2012,07,01,17,01,606.80
2012,07,01,17,02,636.00
2012,07,01,17,03,636.00
2012,07,01,17,04,634.00
2012,07,01,17,05,609.90
2012,07,01,17,06,560.60